Waarnemingen

Advertentie
Mijn weer
Pau, Frankrijk (7610): temperatuur & dauwpunt: 19.04.2018 14:00:00 - 25.04.2018 14:00:00 (CEST)Pau, Frankrijk (7610): temperatuur 5cm: 19.04.2018 14:00:00 - 25.04.2018 14:00:00 (CEST)Pau, Frankrijk (7610): temperatuur -20cm & temperatuur -100cm: 19.04.2018 14:00:00 - 25.04.2018 14:00:00 (CEST)Pau, Frankrijk (7610): windsnelheid & windstoten: 19.04.2018 14:00:00 - 25.04.2018 14:00:00 (CEST)Pau, Frankrijk (7610): windrichting: 19.04.2018 14:00:00 - 25.04.2018 14:00:00 (CEST)Pau, Frankrijk (7610): luchtdruk: 19.04.2018 14:00:00 - 25.04.2018 14:00:00 (CEST)Pau, Frankrijk (7610): zicht: 19.04.2018 14:00:00 - 25.04.2018 14:00:00 (CEST)Pau, Frankrijk (7610): Zonneschijnduur: 19.04.2018 14:00:00 - 25.04.2018 14:00:00 (CEST)Pau, Frankrijk (7610): neerslag: 19.04.2018 14:00:00 - 25.04.2018 14:00:00 (CEST)
Datum & Tijd tt [°C] td [°C] tt 5cm [°C] tt -20cm [°C] tt -100cm [°C] ff [km/u] ff [kn] fx [km/u] fx [kn] dd ppp [hPa] vv [km] sd [min] rr [mm]
25.04.2018 14:00:00 - - - - - - - - - - - - - -
25.04.2018 13:00:00 15,1 13,3 15,8 17,2 13,4 10 5 17 9 WNW 1022,6 16 0 0,0
25.04.2018 12:00:00 14,5 12,9 15,6 17,2 13,3 4 2 9 5 NNW 1022,7 34 0 0,0
25.04.2018 11:00:00 13,9 12,6 14,4 17,3 13,3 4 2 8 4 ZW 1022,7 15 0 0,0
25.04.2018 10:00:00 13,3 12,7 13,4 17,4 13,3 3 2 7 4 NNW 1022,5 5 0 0,0
25.04.2018 09:00:00 12,8 12,3 12,9 17,4 13,3 5 3 11 6 NNW 1022,0 3,5 0 0,2
25.04.2018 08:00:00 12,7 12,2 12,6 17,5 13,3 9 5 15 8 NNW 1021,2 2,2 0 0,2
25.04.2018 07:00:00 12,6 12,1 12,6 17,6 13,3 10 5 16 9 NNW 1020,3 2,5 0 0,0
25.04.2018 06:00:00 12,9 12,4 12,9 17,7 13,3 8 5 16 9 NNW 1019,8 2,1 0 0,2
25.04.2018 05:00:00 13,0 12,4 13,0 17,7 13,3 12 7 21 11 WNW 1019,8 2,3 0 0,0
25.04.2018 04:00:00 13,3 12,5 13,2 17,7 13,3 11 6 26 14 NW 1019,5 2,6 0 0,0
25.04.2018 03:00:00 14,2 12,6 13,6 17,8 13,3 18 10 29 16 WNW 1019,6 13 0 0,0
25.04.2018 02:00:00 14,3 12,5 13,5 17,8 13,3 16 9 34 19 W 1019,8 14 0 0,0
25.04.2018 01:00:00 14,8 13,2 13,9 17,8 13,3 14 8 30 16 W 1019,4 10 0 0,0
25.04.2018 00:00:00 15,5 13,5 14,4 17,7 13,2 13 7 26 14 W 1018,6 12 0 0,0
24.04.2018 23:00:00 18,5 14,8 13,7 17,7 13,3 3 1 6 3 ZW 1017,3 19 0 0,0
24.04.2018 22:00:00 20,1 14,5 14,6 17,5 13,2 2 1 8 5 N 1016,5 32 0 0,0
24.04.2018 21:00:00 22,2 14,3 18,4 17,4 13,2 7 4 16 9 NO 1015,7 20 29 0,0
24.04.2018 20:00:00 24,4 14,2 23,4 17,2 13,2 11 6 20 11 NO 1015,3 2,3 60 0,0
24.04.2018 19:00:00 25,6 15,0 27,4 17,1 13,2 12 6 25 14 NO 1015,2 18 60 0,0
24.04.2018 18:00:00 25,9 14,4 31,6 16,9 13,2 11 6 31 17 ONO 1015,4 32 60 0,0
24.04.2018 17:00:00 25,8 14,3 32,8 16,8 13,2 7 4 23 12 ONO 1015,9 14 60 0,0
24.04.2018 16:00:00 25,0 14,2 32,6 16,6 13,2 10 6 24 13 ONO 1016,9 20 60 0,0
24.04.2018 15:00:00 24,2 15,4 32,1 16,5 13,2 10 5 24 13 NO 1017,7 17 60 0,0
24.04.2018 14:00:00 23,1 13,8 32,3 16,5 13,2 8 5 24 13 ONO 1018,5 19 60 0,0
24.04.2018 13:00:00 22,3 14,9 30,8 16,5 13,2 12 6 26 14 ONO 1019,0 19 60 0,0
24.04.2018 12:00:00 21,3 14,7 25,9 16,5 13,1 11 6 24 13 NO 1019,6 18 41 0,0
24.04.2018 11:00:00 18,7 14,8 21,0 16,5 13,1 7 4 15 8 O 1020,0 11 24 0,0
24.04.2018 10:00:00 16,6 14,4 17,4 16,5 13,2 6 3 11 6 O 1020,5 7 0 0,0
24.04.2018 09:00:00 15,2 14,1 15,1 16,6 13,1 3 1 6 3 ZW 1020,6 4,6 0 0,0
24.04.2018 08:00:00 14,7 13,7 14,5 16,6 13,1 4 2 8 4 ZW 1020,5 3,5 0 0,0
24.04.2018 07:00:00 14,6 13,6 14,5 16,6 13,1 4 2 9 5 W 1020,2 6 0 0,0
24.04.2018 06:00:00 14,6 13,6 14,5 16,7 13,1 6 4 11 6 W 1020,1 6 0 0,0
24.04.2018 05:00:00 14,8 13,7 14,7 16,7 13,1 7 4 11 6 NNW 1020,2 7 0 0,0
24.04.2018 04:00:00 14,9 13,8 14,8 16,7 13,1 6 3 11 6 W 1020,3 7 0 0,0
24.04.2018 03:00:00 15,1 13,8 15,0 16,8 13,0 7 4 11 6 NW 1020,8 9 0 0,0
24.04.2018 02:00:00 15,3 13,7 15,1 16,8 13,0 5 3 13 7 NW 1021,1 10 0 0,0
24.04.2018 01:00:00 15,7 14,2 14,3 16,8 13,0 6 4 9 5 NNW 1021,4 10 0 0,0
24.04.2018 00:00:00 16,3 14,3 15,6 16,8 13,0 5 3 14 7 N 1021,4 11 0 0,0
23.04.2018 23:00:00 16,8 14,4 16,4 16,7 13,0 9 5 18 10 NNW 1021,5 13 0 0,0
23.04.2018 22:00:00 17,7 14,4 16,7 16,7 13,0 6 3 14 8 WNW 1021,0 12 0 0,0
23.04.2018 21:00:00 18,0 14,3 17,4 16,6 13,0 9 5 16 9 NW 1020,1 13 0 0,0
23.04.2018 20:00:00 18,6 14,7 18,6 16,6 13,0 10 5 17 9 NNW 1019,5 14 0 0,0
23.04.2018 19:00:00 19,4 14,4 21,0 16,5 13,0 11 6 19 10 N 1019,6 13 47 0,0
23.04.2018 18:00:00 19,0 14,7 21,5 16,5 13,0 9 5 17 9 WNW 1019,9 11 6 0,0
23.04.2018 17:00:00 18,4 14,3 19,9 16,4 12,9 11 6 19 10 NNW 1020,1 11 0 0,0
23.04.2018 16:00:00 19,0 14,5 22,4 16,4 12,9 3 2 18 10 NNW 1020,3 13 0 0,0
23.04.2018 15:00:00 19,5 12,7 25,8 16,4 12,9 6 3 13 7 ZO 1020,6 14 20 0,0
23.04.2018 14:00:00 18,8 13,2 22,6 16,4 12,9 4 2 13 7 OZO 1021,2 12 17 0,0
23.04.2018 13:00:00 17,1 13,0 19,4 16,4 12,9 7 4 16 9 Z 1021,8 12 0 0,0
23.04.2018 12:00:00 16,0 12,7 18,2 16,5 12,9 9 5 15 8 Z 1022,2 12 0 0,0
23.04.2018 11:00:00 14,8 12,5 15,7 16,5 12,9 3 2 11 6 NW 1022,2 8 0 0,0
23.04.2018 10:00:00 13,4 12,9 13,9 16,6 12,9 6 3 19 10 NNW 1021,6 5 0 0,0
23.04.2018 09:00:00 12,9 12,6 12,8 16,7 12,9 8 4 14 8 NW 1021,1 0,3 0 0,0
23.04.2018 08:00:00 11,9 11,4 8,6 16,7 12,8 3 2 4 2 WNW 1020,5 0,1 0 0,0
23.04.2018 07:00:00 11,9 11,3 8,9 16,8 12,8 3 1 11 6 N 1019,8 2,0 0 0,0
23.04.2018 06:00:00 12,4 11,3 8,8 16,9 12,8 0 0 9 5 N 1019,6 1,2 0 0,0
23.04.2018 05:00:00 13,5 12,2 12,0 16,9 12,8 6 3 9 5 ZZO 1019,5 7 0 0,0
23.04.2018 04:00:00 13,5 12,6 10,0 17,0 12,8 8 4 11 6 ZZW 1019,6 6 0 0,0
23.04.2018 03:00:00 13,2 12,1 10,1 17,0 12,8 2 1 14 8 W 1019,5 7 0 0,0
23.04.2018 02:00:00 13,8 12,4 11,5 17,0 12,8 8 4 13 7 WNW 1019,4 11 0 0,0
23.04.2018 01:00:00 14,9 12,4 13,3 17,0 12,8 11 6 25 14 WZW 1019,1 15 0 0,0
23.04.2018 00:00:00 16,2 12,2 15,4 17,0 12,8 15 8 50 27 NNW 1018,3 18 0 0,0
22.04.2018 23:00:00 18,1 13,8 16,0 17,0 12,8 10 5 16 9 NNW 1017,5 18 0 0,0
22.04.2018 22:00:00 18,6 13,5 16,8 17,0 12,8 7 4 22 12 WNW 1017,0 19 0 0,0
22.04.2018 21:00:00 19,6 14,4 17,0 16,9 12,7 7 4 14 7 W 1015,7 18 0 0,0
22.04.2018 20:00:00 21,3 14,0 19,9 16,9 12,7 8 4 14 8 W 1014,9 19 26 0,0
22.04.2018 19:00:00 21,6 14,0 21,6 16,8 12,7 10 6 21 11 WNW 1014,8 20 0 0,0
22.04.2018 18:00:00 23,4 12,7 23,6 16,6 12,7 6 3 13 7 N 1014,5 20 0 0,0
22.04.2018 17:00:00 24,4 9,9 26,0 16,6 12,7 6 4 22 12 O 1014,3 20 8 0,0
22.04.2018 16:00:00 25,1 11,3 29,6 16,6 12,7 10 6 19 10 N 1014,8 20 43 0,0
22.04.2018 15:00:00 24,7 12,3 27,4 16,5 12,7 7 4 17 9 NO 1015,1 19 7 0,0
22.04.2018 14:00:00 23,8 10,5 26,1 16,5 12,7 10 5 17 9 NO 1015,4 20 5 0,0
22.04.2018 13:00:00 23,7 12,0 28,8 16,5 12,6 11 6 21 11 NNW 1015,7 20 33 0,0
22.04.2018 12:00:00 23,0 12,3 25,5 16,6 12,7 4 2 12 6 N 1016,1 20 1 0,0
22.04.2018 11:00:00 22,2 11,0 23,4 16,6 12,6 8 4 13 7 ZO 1016,0 20 47 0,0
22.04.2018 10:00:00 18,5 11,1 17,0 16,7 12,6 8 4 13 7 ZO 1016,1 29 10 0,0
22.04.2018 09:00:00 16,0 9,6 13,8 16,8 12,6 8 4 10 5 ZO 1016,3 35 0 0,0
22.04.2018 08:00:00 15,0 9,8 12,3 16,9 12,6 8 5 14 7 OZO 1016,0 20 0 0,0
22.04.2018 07:00:00 14,2 10,6 11,2 16,9 12,6 5 3 10 5 O 1015,6 30 0 0,0
22.04.2018 06:00:00 14,8 11,4 12,4 16,9 12,6 6 3 10 6 OZO 1015,5 20 0 0,0
22.04.2018 05:00:00 15,2 12,1 13,1 17,0 12,6 8 5 10 5 OZO 1015,4 20 0 0,0
22.04.2018 04:00:00 15,1 13,0 11,8 17,0 12,6 6 3 9 5 OZO 1015,5 18 0 0,0
22.04.2018 03:00:00 15,3 12,6 12,0 17,0 12,6 4 2 9 5 ZO 1015,9 18 0 0,0
22.04.2018 02:00:00 15,8 13,1 12,8 17,0 12,5 6 3 9 5 ZO 1015,9 19 0 0,0
22.04.2018 01:00:00 17,0 13,1 12,9 17,0 12,5 5 3 10 5 ZZW 1016,0 20 0 0,0
22.04.2018 00:00:00 17,7 13,2 14,3 17,0 12,5 4 2 8 4 NNO 1015,6 28 0 0,0
21.04.2018 23:00:00 19,4 12,4 15,7 16,9 12,5 8 4 9 5 ZO 1015,4 30 0 0,0
21.04.2018 22:00:00 20,5 11,9 16,4 16,8 12,5 6 4 11 6 O 1015,4 33 0 0,0
21.04.2018 21:00:00 21,8 11,8 18,3 16,7 12,5 7 4 14 8 NO 1014,9 30 0 0,0
21.04.2018 20:00:00 23,5 11,9 21,5 16,5 12,5 9 5 19 10 NO 1014,8 38 0 0,0
21.04.2018 19:00:00 25,0 12,2 24,6 16,3 12,5 13 7 25 13 NO 1014,7 20 40 0,0
21.04.2018 18:00:00 26,1 11,4 30,3 16,2 12,5 10 5 17 9 NO 1014,7 9 60 0,0
21.04.2018 17:00:00 26,3 12,0 32,4 16,0 12,5 5 3 24 13 NO 1015,2 19 60 0,0
21.04.2018 16:00:00 26,1 11,8 33,4 15,9 12,4 8 5 23 12 N 1015,7 19 60 0,0
21.04.2018 15:00:00 25,5 14,6 33,3 15,8 12,4 5 3 20 11 N 1016,2 20 60 0,0
21.04.2018 14:00:00 24,7 12,6 33,5 15,7 12,4 8 5 17 9 NW 1016,6 19 60 0,0
21.04.2018 13:00:00 23,8 12,1 31,2 15,8 12,4 7 4 19 10 NNW 1017,2 19 60 0,0
21.04.2018 12:00:00 23,2 12,2 31,8 15,8 12,4 6 4 14 7 NW 1017,9 18 60 0,0
21.04.2018 11:00:00 22,2 12,7 28,0 15,8 12,4 4 2 12 7 ZZO 1018,2 20 60 0,0
21.04.2018 10:00:00 19,1 12,8 21,8 15,9 12,4 5 3 10 5 ZO 1018,5 20 60 0,0
21.04.2018 09:00:00 15,6 11,8 14,3 16,0 12,4 4 2 12 7 ZO 1018,9 20 60 0,0
21.04.2018 08:00:00 12,3 10,7 10,1 16,0 12,4 4 2 10 6 OZO 1019,2 14 21 0,0
21.04.2018 07:00:00 11,8 10,4 8,4 16,1 12,4 8 4 12 7 O 1018,6 16 0 0,0
21.04.2018 06:00:00 12,9 11,3 9,6 16,2 12,4 5 3 10 5 Z 1018,7 15 0 0,0
21.04.2018 05:00:00 12,5 11,1 8,8 16,2 12,4 4 2 11 6 O 1018,9 16 0 0,0
21.04.2018 04:00:00 12,7 11,4 9,6 16,2 12,4 5 3 9 5 ONO 1019,2 17 0 0,0
21.04.2018 03:00:00 13,6 11,6 10,7 16,2 12,3 6 3 9 5 OZO 1019,4 20 0 0,0
21.04.2018 02:00:00 14,4 11,9 11,5 16,2 12,4 6 3 9 5 O 1019,9 27 0 0,0
21.04.2018 01:00:00 16,8 12,5 12,2 16,2 12,3 4 2 11 6 ZZW 1020,0 19 0 0,0
21.04.2018 00:00:00 16,2 12,6 12,5 16,2 12,3 6 4 12 6 WZW 1020,1 19 0 0,0
20.04.2018 23:00:00 17,8 12,5 15,4 16,1 12,3 6 3 32 17 N 1020,1 41 0 0,0
20.04.2018 22:00:00 18,7 14,0 15,1 16,0 12,3 11 6 23 12 WNW 1019,6 20 0 0,0
20.04.2018 21:00:00 20,8 13,2 16,2 15,9 12,3 7 4 17 9 N 1018,7 20 5 0,0
20.04.2018 20:00:00 23,5 12,8 22,5 15,6 12,3 13 7 23 12 NO 1018,1 29 60 0,0
20.04.2018 19:00:00 24,6 12,5 26,1 15,5 12,3 13 7 32 17 ONO 1017,9 25 60 0,0
20.04.2018 18:00:00 25,2 12,1 30,1 15,4 12,3 11 6 23 12 NO 1018,0 20 60 0,0
20.04.2018 17:00:00 25,3 11,8 32,3 15,2 12,2 8 4 19 10 NO 1018,3 20 60 0,0
20.04.2018 16:00:00 25,1 12,0 32,6 15,1 12,3 4 2 19 11 NNO 1018,9 19 60 0,0
20.04.2018 15:00:00 24,7 11,3 32,2 15,0 12,2 10 5 20 11 NNO 1019,5 17 60 0,0
20.04.2018 14:00:00 24,1 12,7 31,4 15,0 12,2 10 5 22 12 NW 1020,0 11 60 0,0
20.04.2018 13:00:00 23,0 11,7 30,0 15,0 12,2 10 6 24 13 NNW 1020,8 19 60 0,0
20.04.2018 12:00:00 22,2 11,6 28,7 15,0 12,2 9 5 22 12 NNW 1021,1 19 60 0,0
20.04.2018 11:00:00 21,1 11,7 28,3 15,1 12,2 10 6 19 10 NW 1021,2 17 60 0,0
20.04.2018 10:00:00 19,4 12,6 22,7 15,1 12,2 3 2 10 5 ZZO 1021,3 33 60 0,0
20.04.2018 09:00:00 16,5 11,8 15,0 15,2 12,2 4 2 10 5 ZO 1021,4 17 60 0,0
20.04.2018 08:00:00 13,3 10,3 10,0 15,2 12,2 7 4 12 6 OZO 1021,6 16 22 0,0
20.04.2018 07:00:00 11,9 9,6 8,2 15,3 12,2 9 5 11 6 OZO 1021,3 27 0 0,0
20.04.2018 06:00:00 11,5 9,2 8,3 15,3 12,2 5 3 9 5 OZO 1021,1 32 0 0,0
20.04.2018 05:00:00 11,6 9,7 8,4 15,4 12,2 4 2 6 4 O 1021,2 31 0 0,0
20.04.2018 04:00:00 12,5 9,9 9,0 15,4 12,2 4 2 8 5 O 1021,1 37 0 0,0
20.04.2018 03:00:00 14,3 10,3 9,8 15,4 12,2 8 4 11 6 ZZO 1021,0 34 0 0,0
20.04.2018 02:00:00 14,0 10,6 10,4 15,4 12,1 5 3 10 5 ONO 1020,8 38 0 0,0
20.04.2018 01:00:00 14,8 10,4 10,7 15,3 12,1 6 3 8 4 N 1021,2 42 0 0,0
20.04.2018 00:00:00 16,5 11,0 11,4 15,3 12,1 3 1 10 5 O 1020,7 51 0 0,0
19.04.2018 23:00:00 19,1 10,1 15,6 15,2 12,1 9 5 21 11 O 1020,7 32 0 0,0
19.04.2018 22:00:00 20,2 11,4 16,4 15,1 12,1 15 8 24 13 O 1020,5 59 0 0,0
19.04.2018 21:00:00 22,3 10,8 19,0 15,0 12,1 12 6 21 11 O 1019,9 60 24 0,0
19.04.2018 20:00:00 24,3 12,6 23,2 14,8 12,1 8 4 17 9 NNO 1019,5 19 60 0,0
19.04.2018 19:00:00 25,4 11,6 26,8 14,6 12,1 8 5 19 10 ONO 1019,6 38 60 0,0
19.04.2018 18:00:00 25,9 10,5 29,7 14,5 12,1 8 4 21 11 NO 1019,6 31 60 0,0
19.04.2018 17:00:00 26,0 12,4 31,8 14,4 12,1 10 6 25 14 NO 1019,9 20 60 0,0
19.04.2018 16:00:00 25,8 11,9 31,7 14,3 12,1 12 7 24 13 NNO 1020,4 19 60 0,0
19.04.2018 15:00:00 25,6 11,0 31,7 14,2 12,1 13 7 27 14 NNO 1020,9 18 60 0,0
19.04.2018 14:00:00 25,3 10,7 32,3 14,1 12,1 11 6 27 15 NNO 1021,2 19 60 0,0

tt = temperatuur
td = dauwpunt
tt 5cm = temperatuur 5cm
tt -20cm = temperatuur -20cm
tt -100cm = temperatuur -100cm
ff = windsnelheid
fx = windstoten
dd = windrichting
ppp = luchtdruk
vv = zicht
sd = Zonneschijnduur
rr = neerslag

Weerstations in de omgeving